Independence, KS

3:43 PM CDT on August 18, 2017 (GMT -0500)
Independence Municipal

Weather History for KIDP - January, 2014

Change the Weather History Date:

Thursday, January 30, 2014

  Actual Average (KCFV) Record (KCFV)
Temperature  
Mean Temperature 40 °F -  
Max Temperature 48 °F 44 °F 70 °F (2017)
Min Temperature 32 °F 24 °F 14 °F (2004)
Degree Days  
Heating Degree Days 25    
Moisture  
Dew Point 16 °F    
Average Humidity 44    
Maximum Humidity 60    
Minimum Humidity 32    
Precipitation  
Precipitation 0.00 in - - ()
Sea Level Pressure  
Sea Level Pressure 29.84 in    
Wind  
Wind Speed 17 mph (South)    
Max Wind Speed 28 mph    
Max Gust Speed 36 mph    
Visibility 10 miles    
Events      
Averages and records for this station are not official NWS values.
T = Trace of Precipitation, MM = Missing Value Source: NWS Daily Summary

Daily Weather History Graph

Daily Weather History Graph

Search for Another Location

Airport or City:

Trip Planner

Search our weather history database for the weather conditions in past years. The results will help you decide how hot, cold, wet, or windy it might be!

Date:

Astronomy

Jan. 30, 2014 Rise Set
Actual Time 7:27 AM CST 5:45 PM CST
Civil Twilight 6:59 AM CST 6:13 PM CST
Nautical Twilight 6:28 AM CST 6:44 PM CST
Astronomical Twilight 5:58 AM CST 7:15 PM CST
Moon 6:55 AM CST (1/30) 5:57 PM CST (1/30)
Length of Visible Light 11h 13m
Length of Day
10h 18m
Waning Crescent, 0% of the Moon is Illuminated
Jan 30
Waning Crescent
Jan 30
New
Feb 6
First Quarter
Feb 14
Full
Feb 22
Last Quarter

Hourly Weather History & Observations

Time (CST) Temp. Windchill Dew Point Humidity Pressure Visibility Wind Dir Wind Speed Gust Speed Precip Events Conditions
12:15 AM 32.0 °F 20.5 °F 10.4 °F 41% 29.96 in 10.0 mi South 18.4 mph 24.2 mph N/A   Clear
12:35 AM 32.0 °F 20.8 °F 10.4 °F 41% 29.95 in 10.0 mi South 17.3 mph 23.0 mph N/A   Clear
12:55 AM 32.0 °F 19.8 °F 10.4 °F 41% 29.94 in 10.0 mi South 20.7 mph - N/A   Clear
1:15 AM 32.0 °F 19.8 °F 10.4 °F 41% 29.93 in 10.0 mi South 20.7 mph 27.6 mph N/A   Clear
1:35 AM 32.0 °F 19.8 °F 10.4 °F 41% 29.92 in 10.0 mi South 20.7 mph 25.3 mph N/A   Clear
1:55 AM 32.0 °F 20.1 °F 10.4 °F 41% 29.91 in 10.0 mi South 19.6 mph 25.3 mph N/A   Clear
2:15 AM 32.0 °F 19.2 °F 10.4 °F 41% 29.90 in 10.0 mi South 23.0 mph 26.5 mph N/A   Clear
2:35 AM 32.0 °F 18.9 °F 10.4 °F 41% 29.87 in 10.0 mi South 24.2 mph - N/A   Clear
2:55 AM 32.0 °F 19.5 °F 10.4 °F 41% 29.85 in 10.0 mi South 21.9 mph 27.6 mph N/A   Clear
3:15 AM 32.0 °F 19.5 °F 10.4 °F 41% 29.85 in 10.0 mi South 21.9 mph 27.6 mph N/A   Clear
3:35 AM 32.0 °F 19.8 °F 10.4 °F 41% 29.84 in 10.0 mi South 20.7 mph 28.8 mph N/A   Clear
3:55 AM 32.0 °F 19.5 °F 10.4 °F 41% 29.83 in 10.0 mi South 21.9 mph 28.8 mph N/A   Clear
4:15 AM 32.0 °F 18.6 °F 10.4 °F 41% 29.80 in 10.0 mi South 25.3 mph 29.9 mph N/A   Clear
4:35 AM 32.0 °F 19.2 °F 12.2 °F 44% 29.81 in 10.0 mi South 23.0 mph 31.1 mph N/A   Clear
4:55 AM 32.0 °F 19.2 °F 12.2 °F 44% 29.82 in 10.0 mi South 23.0 mph 27.6 mph N/A   Clear
5:15 AM 32.0 °F 19.5 °F 12.2 °F 44% 29.80 in 10.0 mi South 21.9 mph 27.6 mph N/A   Clear
5:35 AM 32.0 °F 18.6 °F 12.2 °F 44% 29.80 in 10.0 mi South 25.3 mph 33.4 mph N/A   Clear
5:55 AM 32.0 °F 19.2 °F 12.2 °F 44% 29.79 in 10.0 mi South 23.0 mph 31.1 mph N/A   Clear
6:15 AM 32.0 °F 19.5 °F 12.2 °F 44% 29.78 in 10.0 mi South 21.9 mph 28.8 mph N/A   Clear
6:35 AM 32.0 °F 19.2 °F 12.2 °F 44% 29.78 in 10.0 mi South 23.0 mph 29.9 mph N/A   Clear
6:55 AM 32.0 °F 20.1 °F 14.0 °F 48% 29.77 in 10.0 mi South 19.6 mph 28.8 mph N/A   Clear
7:15 AM 32.0 °F 19.2 °F 14.0 °F 48% 29.75 in 10.0 mi South 23.0 mph 28.8 mph N/A   Clear
7:35 AM 32.0 °F 18.6 °F 14.0 °F 48% 29.75 in 10.0 mi South 25.3 mph 31.1 mph N/A   Clear
7:55 AM 32.0 °F 18.1 °F 14.0 °F 48% 29.74 in 10.0 mi South 27.6 mph 32.2 mph N/A   Clear
8:15 AM 32.0 °F 18.9 °F 14.0 °F 48% 29.77 in 10.0 mi South 24.2 mph 29.9 mph N/A   Clear
8:35 AM 32.0 °F 19.2 °F 14.0 °F 48% 29.75 in 10.0 mi South 23.0 mph 32.2 mph N/A   Clear
8:55 AM 33.8 °F 21.0 °F 14.0 °F 44% 29.78 in 10.0 mi South 25.3 mph 35.7 mph N/A   Clear
9:15 AM 33.8 °F 20.8 °F 14.0 °F 44% 29.77 in 10.0 mi South 26.5 mph 35.7 mph N/A   Clear
9:35 AM 35.6 °F 23.7 °F 15.8 °F 44% 29.78 in 10.0 mi South 24.2 mph 33.4 mph N/A   Clear
9:55 AM 35.6 °F 23.0 °F 15.8 °F 44% 29.79 in 10.0 mi SSW 27.6 mph 33.4 mph N/A   Clear
10:15 AM 35.6 °F 24.2 °F 15.8 °F 44% 29.80 in 10.0 mi SSW 21.9 mph 29.9 mph N/A   Clear
10:35 AM 37.4 °F 26.6 °F 15.8 °F 41% 29.80 in 10.0 mi South 21.9 mph 28.8 mph N/A   Clear
10:55 AM 39.2 °F 29.6 °F 17.6 °F 42% 29.80 in 10.0 mi SSW 19.6 mph 28.8 mph N/A   Clear
11:15 AM 41.0 °F 30.5 °F 17.6 °F 39% 29.80 in 10.0 mi SSW 26.5 mph 33.4 mph N/A   Clear
11:35 AM 41.0 °F 31.6 °F 17.6 °F 39% 29.81 in 10.0 mi SW 20.7 mph 25.3 mph N/A   Clear
11:55 AM 42.8 °F 34.5 °F 17.6 °F 36% 29.81 in 10.0 mi SSW 18.4 mph 25.3 mph N/A   Clear
12:15 PM 42.8 °F 34.3 °F 17.6 °F 36% 29.81 in 10.0 mi SW 19.6 mph 26.5 mph N/A   Clear
12:35 PM 42.8 °F 34.5 °F 17.6 °F 36% 29.80 in 10.0 mi SW 18.4 mph 25.3 mph N/A   Clear
12:55 PM 42.8 °F 35.4 °F 17.6 °F 36% 29.79 in 10.0 mi SSW 15.0 mph 21.9 mph N/A   Clear
1:15 PM 44.6 °F 38.1 °F 17.6 °F 34% 29.79 in 10.0 mi SSW 13.8 mph 21.9 mph N/A   Clear
1:35 PM 44.6 °F 38.4 °F 17.6 °F 34% 29.79 in 10.0 mi SSW 12.7 mph 19.6 mph N/A   Clear
1:55 PM 44.6 °F 37.8 °F 17.6 °F 34% 29.80 in 10.0 mi SSW 15.0 mph - N/A   Clear
2:15 PM 46.4 °F 40.4 °F 19.4 °F 34% 29.79 in 10.0 mi SSW 13.8 mph - N/A   Clear
2:35 PM 46.4 °F 40.7 °F 19.4 °F 34% 29.80 in 10.0 mi SSW 12.7 mph 18.4 mph N/A   Clear
2:55 PM 46.4 °F 40.7 °F 19.4 °F 34% 29.79 in 10.0 mi SW 12.7 mph - N/A   Clear
3:15 PM 46.4 °F 42.4 °F 19.4 °F 34% 29.80 in 10.0 mi SSW 8.1 mph - N/A   Clear
3:35 PM 46.4 °F 42.4 °F 19.4 °F 34% 29.81 in 10.0 mi SSW 8.1 mph - N/A   Clear
3:55 PM 46.4 °F 41.5 °F 19.4 °F 34% 29.82 in 10.0 mi SW 10.4 mph - N/A   Clear
4:15 PM 48.2 °F - 19.4 °F 32% 29.83 in 10.0 mi SSW 8.1 mph - N/A   Clear
4:35 PM 46.4 °F 41.5 °F 19.4 °F 34% 29.84 in 10.0 mi SSW 10.4 mph - N/A   Clear
4:55 PM 44.6 °F 41.4 °F 19.4 °F 37% 29.82 in 10.0 mi South 5.8 mph - N/A   Clear
5:15 PM 44.6 °F 41.4 °F 19.4 °F 37% 29.84 in 10.0 mi South 5.8 mph - N/A   Clear
5:35 PM 42.8 °F 40.1 °F 19.4 °F 39% 29.84 in 10.0 mi SSE 4.6 mph - N/A   Clear
5:55 PM 41.0 °F 37.1 °F 19.4 °F 42% 29.86 in 10.0 mi South 5.8 mph - N/A   Clear
6:15 PM 39.2 °F 35.9 °F 19.4 °F 45% 29.87 in 10.0 mi South 4.6 mph - N/A   Clear
6:35 PM 39.2 °F 35.0 °F 19.4 °F 45% 29.87 in 10.0 mi SSE 5.8 mph - N/A   Clear
6:55 PM 37.4 °F 33.8 °F 19.4 °F 48% 29.88 in 10.0 mi SE 4.6 mph - N/A   Clear
7:15 PM 37.4 °F 33.8 °F 19.4 °F 48% 29.87 in 10.0 mi SE 4.6 mph - N/A   Clear
7:35 PM 35.6 °F 32.8 °F 19.4 °F 52% 29.88 in 10.0 mi SE 3.5 mph - N/A   Clear
7:55 PM 35.6 °F - 19.4 °F 52% 29.89 in 10.0 mi Calm Calm - N/A   Clear
8:15 PM 35.6 °F - 19.4 °F 52% 29.88 in 10.0 mi Calm Calm - N/A   Clear
8:35 PM 35.6 °F 32.8 °F 19.4 °F 52% 29.88 in 10.0 mi SE 3.5 mph - N/A   Clear
8:55 PM 35.6 °F - 21.2 °F 56% 29.89 in 10.0 mi Calm Calm - N/A   Clear
9:15 PM 35.6 °F - 19.4 °F 52% 29.90 in 10.0 mi Calm Calm - N/A   Clear
9:35 PM 33.8 °F - 19.4 °F 56% 29.90 in 10.0 mi Calm Calm - N/A   Clear
9:55 PM 33.8 °F - 19.4 °F 56% 29.90 in 10.0 mi Calm Calm - N/A   Clear
10:15 PM 35.6 °F - 19.4 °F 52% 29.90 in 10.0 mi Calm Calm - N/A   Clear
10:35 PM 33.8 °F - 21.2 °F 60% 29.90 in 10.0 mi Calm Calm - N/A   Clear
10:55 PM 33.8 °F - 21.2 °F 60% 29.90 in 10.0 mi Calm Calm - N/A   Clear
11:15 PM 33.8 °F - 21.2 °F 60% 29.90 in 10.0 mi Calm Calm - N/A   Clear
11:35 PM 33.8 °F - 21.2 °F 60% 29.90 in 10.0 mi Calm Calm - N/A   Clear
11:55 PM 33.8 °F - 21.2 °F 60% 29.90 in 10.0 mi Calm Calm - N/A   Clear